Wind_Speed
12 6 12 19 17 7 15 8 5 6 7 4 11 12 9 7 6 9 12 13 14 17 15 17 17 19 20 22 24 24 24 27 27 28 27 28 28 25 25 23 22 21 22 22
7 13 16 14 9 12 10 11 15 6 2 4 7 12 13 13 13 13 14 14 15 17 18 18 19 20 24 25 27 29 31 30 31 31 30 29 27 26 27 27 25 23 23 22
14 3 8 15 15 12 12 16 12 2 5 2 7 15 16 15 18 18 16 18 19 22 23 22 21 22 22 23 27 27 31 31 32 32 32 33 33 33 30 29 28 25 22 21
10 4 8 12 15 15 13 5 7 5 2 9 2 7 14 15 12 12 17 21 26 27 25 24 22 21 19 24 26 29 30 32 33 33 34 34 34 33 31 28 29 24 22 22
5 7 9 11 12 12 6 9 10 5 4 5 7 6 11 14 12 12 20 23 21 17 14 16 16 17 20 24 27 33 34 33 34 34 32 34 35 33 24 30 26 24 23 22
4 3 3 2 5 6 14 15 9 4 2 5 12 9 7 12 11 15 9 4 3 4 6 9 12 14 17 17 21 25 29 31 32 34 33 34 33 32 33 30 26 24 23 22
7 5 4 9 11 12 8 12 4 3 5 6 4 9 13 6 8 9 9 3 4 7 9 10 13 13 14 17 17 20 24 28 29 32 32 31 31 30 30 27 24 24 23 21
12 6 11 9 9 9 14 13 4 6 7 2 2 7 4 3 9 8 7 9 9 7 5 8 10 12 15 19 21 21 22 22 25 28 28 29 29 28 28 25 23 23 22 21
9 6 10 14 4 13 9 9 1 4 2 1 7 7 11 12 11 7 7 5 6 4 5 8 10 12 13 15 17 19 20 19 22 22 23 26 25 25 24 23 23 24 23 22
2 6 7 6 4 5 5 10 3 2 4 5 6 8 9 6 7 6 3 1 4 3 7 9 11 13 16 17 18 18 18 19 19 20 21 21 22 22 22 23 24 24 23 22
2 1 5 7 9 12 6 7 4 3 3 3 4 5 7 5 5 1 5 6 6 5 6 9 13 16 17 17 17 17 17 16 16 17 19 20 21 22 23 24 25 25 24 24
2 3 5 8 3 5 12 10 11 3 4 5 3 4 5 8 8 8 6 7 9 5 4 8 14 18 19 20 16 16 16 15 16 17 19 21 23 23 24 25 26 27 27 28
3 1 5 4 2 1 6 13 11 12 3 9 4 1 2 3 5 7 8 10 9 8 10 16 22 23 20 23 22 20 19 19 19 20 21 23 25 26 27 28 29 30 31 31
3 3 3 1 5 2 6 12 14 15 7 5 14 12 9 4 5 13 17 20 24 21 20 28 30 31 29 28 30 30 26 23 22 24 27 28 29 31 31 31 32 33 33 33
3 3 3 5 4 1 3 7 16 18 21 11 16 17 13 14 15 20 24 26 24 25 26 27 29 30 31 30 30 35 34 32 31 31 32 32 35 34 34 33 34 34 35 34
2 3 5 3 2 4 2 7 8 14 18 15 20 22 14 22 19 17 17 18 21 24 25 26 28 30 32 33 33 35 37 38 36 39 37 35 36 37 39 37 36 37 37 37
2 2 1 4 1 1 5 10 13 11 11 13 15 16 16 15 17 19 20 19 18 18 23 28 32 34 33 32 31 34 36 36 39 38 40 40 40 40 40 40 41 41 40 39
2 1 1 2 1 4 3 4 3 7 15 11 14 14 12 15 17 18 11 7 13 19 26 32 35 36 36 36 34 34 33 35 37 39 39 42 42 43 42 43 44 44 43 42
3 0 2 2 5 8 4 2 4 6 2 5 2 5 11 18 21 6 4 16 20 22 25 29 30 34 35 35 37 37 37 35 35 36 35 36 40 41 43 46 47 46 45 44
3 2 2 1 3 5 5 4 5 1 3 6 9 9 15 16 10 9 23 25 22 23 26 30 31 32 33 31 29 33 36 37 34 35 35 35 37 41 44 46 46 44 44 44
4 2 7 5 4 6 5 3 2 2 2 7 11 15 15 9 13 24 26 22 26 27 29 29 31 32 33 35 36 35 30 31 34 34 34 34 33 33 36 40 41 41 40 40
6 6 4 5 4 8 9 1 4 3 3 8 15 12 15 17 20 24 25 29 32 36 37 36 37 37 35 35 35 36 37 34 31 30 31 32 33 33 32 34 36 37 37 37
5 6 3 8 5 3 6 9 6 6 14 17 13 13 12 21 23 24 28 34 35 35 37 36 36 37 36 37 37 39 38 39 38 36 31 26 30 31 31 30 32 33 34 35
6 9 4 3 11 21 22 20 20 17 17 10 17 18 23 24 21 29 32 33 35 33 32 33 34 35 36 34 36 38 41 42 41 39 37 35 28 32 32 28 29 30 31 32
4 10 7 9 19 21 24 21 17 10 15 24 27 24 22 20 27 29 31 29 29 30 31 33 35 37 39 41 41 40 40 40 42 41 38 34 34 32 30 34 37 34 33 32
14 10 10 7 5 7 2 6 12 19 24 20 18 22 24 25 25 24 25 26 29 33 36 38 39 41 43 43 43 43 42 40 40 41 38 36 35 33 33 31 32 34 34 36
Wind_Direction
208 209 205 197 205 196 164 188 220 302 35 322 245 253 231 178 222 223 225 225 225 231 235 238 237 234 234 232 232 234 235 243 245 247 252 251 253 256 253 257 267 281 287 282
158 218 221 223 179 151 219 184 189 176 78 292 270 263 246 244 239 239 238 237 240 247 245 243 240 237 239 242 246 243 245 247 251 253 255 253 254 251 252 255 264 278 289 281
209 184 164 204 186 182 201 207 212 207 149 238 291 271 259 238 238 238 242 247 251 252 254 252 248 253 248 247 249 248 252 252 253 254 250 252 249 251 255 256 262 274 282 278
247 100 192 191 195 189 193 189 125 117 248 239 272 267 248 239 217 226 244 243 245 248 253 257 257 255 251 256 252 256 257 258 255 254 253 252 252 252 257 257 258 272 276 272
155 179 180 195 193 183 218 151 131 120 219 304 208 267 256 253 250 254 247 244 252 254 261 267 267 259 258 253 253 261 261 258 258 257 255 250 248 247 236 251 257 268 270 264
89 360 171 167 97 188 132 110 92 119 338 271 240 229 240 227 219 240 247 17 275 281 283 284 284 276 269 269 270 269 266 262 255 252 250 246 246 245 247 250 258 265 263 257
151 151 137 169 113 147 156 163 133 161 189 239 355 215 245 301 303 269 280 257 278 287 285 284 277 277 283 283 282 277 272 266 258 250 246 244 242 241 246 249 256 261 260 252
180 185 177 184 199 182 190 187 165 211 209 202 111 232 245 260 271 278 272 267 279 287 297 311 307 298 289 282 275 282 280 272 259 255 251 248 245 242 245 250 255 257 252 245
187 140 160 177 155 147 176 210 15 82 31 302 197 255 273 241 267 259 264 262 261 261 320 329 335 332 322 308 293 288 285 280 265 258 250 246 245 245 249 253 253 250 246 242
161 123 194 155 177 172 201 153 137 215 196 233 236 247 251 182 226 230 194 17 12 317 345 353 348 335 326 321 314 306 295 284 271 258 253 251 249 250 252 252 250 246 242 237
117 107 134 155 212 183 170 177 213 194 249 258 279 257 27 46 38 51 80 65 35 12 8 16 13 1 343 322 312 306 299 289 276 260 251 250 251 252 251 249 246 242 239 236
354 65 150 168 49 321 228 207 200 207 207 244 341 265 93 82 76 67 45 353 338 334 353 353 343 337 334 322 310 302 294 285 279 264 255 253 254 252 253 250 244 241 238 237
159 164 129 153 304 260 223 217 233 237 338 222 208 223 88 65 352 15 5 350 346 333 319 314 316 318 306 316 299 306 302 291 280 265 258 254 253 253 252 247 243 239 237 238
66 72 23 160 66 327 195 217 215 220 224 221 229 249 160 147 297 303 311 307 303 304 305 308 309 309 310 305 301 299 294 292 289 280 271 261 256 254 252 249 246 243 243 244
6 116 124 124 107 130 235 238 217 222 235 241 259 264 271 304 311 310 301 298 296 292 297 301 305 304 300 298 291 295 294 282 282 284 272 270 263 259 257 256 253 250 249 249
12 128 159 159 172 157 236 243 249 242 249 252 265 271 291 291 291 299 311 303 302 304 313 321 320 316 311 307 302 297 295 297 283 280 273 269 264 262 258 255 253 250 249 249
22 119 306 153 174 317 270 227 216 232 234 234 249 268 296 314 330 331 323 317 326 344 339 337 339 337 326 319 313 304 300 300 295 290 274 270 266 261 257 254 252 251 249 249
69 80 6 85 251 207 114 21 16 254 246 246 256 281 332 329 332 319 312 27 354 338 334 338 338 335 336 339 324 312 302 300 296 292 284 274 270 264 263 260 257 253 251 250
257 81 103 184 235 318 264 82 204 196 175 47 62 355 339 336 328 313 56 351 332 327 322 321 322 325 326 331 332 333 322 311 308 296 289 284 275 267 264 266 263 257 254 252
231 272 297 143 243 235 109 108 348 245 216 90 10 346 340 338 319 323 331 327 325 323 323 320 318 315 314 317 321 318 323 325 318 306 293 279 272 267 265 264 264 262 256 252
136 202 219 229 266 282 253 263 323 178 105 359 344 332 325 317 303 302 311 314 318 319 321 321 317 314 314 316 317 313 313 319 324 319 305 294 285 275 268 265 264 262 258 254
177 179 192 208 246 258 177 92 204 68 286 340 329 322 311 305 303 304 307 315 318 319 319 318 315 314 315 314 313 309 307 310 302 301 308 306 297 285 273 266 262 259 255 251
215 202 191 204 221 239 187 235 206 278 305 307 294 296 299 299 302 305 306 311 313 314 316 318 318 315 314 312 312 311 310 306 303 301 294 298 303 296 285 272 264 258 254 250
233 222 229 213 237 240 246 254 262 268 290 295 307 303 304 297 297 302 307 309 311 316 320 323 324 324 325 323 318 313 307 305 303 300 299 291 280 284 293 282 270 262 257 254
217 164 207 257 270 269 273 270 281 286 299 308 306 299 299 297 300 305 308 313 316 319 322 323 322 320 320 319 318 317 313 306 302 299 296 291 286 278 266 264 273 275 271 265
205 217 210 219 283 239 327 285 307 306 306 304 308 307 307 306 310 313 316 319 319 319 318 317 315 313 312 310 308 307 306 304 300 298 297 292 287 281 276 269 262 257 257 257
Height
1515 1516 1514 1512 1515 1514 1528 1532 1533 1527 1527 1528 1521 1519 1514 1522 1524 1523 1525 1525 1527 1529 1534 1536 1537 1539 1540 1540 1541 1542 1543 1544 1545 1546 1548 1548 1548 1550 1550 1550 1551 1551 1550 1549
1514 1514 1510 1505 1510 1518 1522 1520 1528 1531 1533 1535 1523 1522 1517 1517 1520 1522 1523 1524 1525 1527 1528 1531 1532 1533 1534 1536 1536 1537 1537 1539 1540 1541 1542 1544 1544 1544 1545 1545 1546 1546 1545 1544
1501 1502 1505 1508 1512 1516 1517 1519 1517 1524 1534 1535 1532 1520 1514 1513 1517 1520 1521 1521 1522 1523 1523 1526 1528 1527 1529 1530 1531 1532 1532 1533 1534 1535 1535 1537 1538 1538 1539 1539 1540 1541 1540 1540
1502 1507 1506 1508 1508 1512 1520 1521 1523 1530 1530 1532 1533 1525 1502 1501 1506 1514 1517 1517 1516 1516 1519 1519 1523 1524 1525 1523 1525 1525 1526 1527 1527 1528 1528 1530 1531 1533 1534 1533 1534 1535 1535 1535
1507 1509 1509 1507 1506 1510 1520 1520 1524 1529 1535 1538 1534 1535 1510 1505 1509 1509 1508 1508 1512 1514 1515 1516 1517 1518 1518 1518 1518 1518 1519 1519 1520 1521 1522 1523 1524 1527 1528 1527 1529 1530 1530 1530
1513 1513 1511 1510 1514 1515 1521 1523 1528 1534 1541 1549 1530 1529 1507 1504 1505 1503 1505 1508 1510 1511 1511 1512 1512 1511 1512 1513 1513 1513 1512 1512 1513 1514 1515 1517 1518 1521 1522 1523 1524 1524 1524 1525
1512 1513 1515 1516 1517 1520 1520 1521 1540 1547 1548 1538 1526 1521 1504 1500 1501 1503 1504 1507 1509 1510 1509 1509 1509 1510 1510 1510 1509 1509 1508 1507 1506 1507 1509 1511 1513 1515 1517 1518 1519 1520 1520 1521
1504 1517 1513 1513 1510 1515 1518 1514 1518 1536 1527 1516 1535 1524 1503 1501 1500 1501 1505 1508 1508 1508 1508 1508 1508 1507 1507 1506 1506 1505 1504 1503 1502 1503 1505 1507 1509 1511 1512 1514 1515 1516 1517 1518
1494 1501 1508 1511 1513 1513 1519 1520 1517 1528 1549 1529 1513 1508 1498 1497 1496 1501 1505 1506 1507 1507 1508 1508 1507 1506 1504 1503 1503 1502 1501 1501 1499 1500 1501 1502 1505 1507 1509 1510 1511 1511 1512 1513
1491 1506 1510 1514 1514 1514 1513 1513 1528 1527 1533 1528 1506 1506 1500 1501 1499 1499 1503 1504 1506 1508 1508 1507 1507 1506 1505 1503 1502 1500 1499 1498 1497 1496 1498 1500 1502 1503 1504 1505 1506 1507 1508 1509
1491 1491 1514 1513 1511 1510 1516 1516 1516 1515 1520 1517 1511 1494 1492 1495 1497 1501 1504 1507 1509 1510 1510 1508 1508 1507 1505 1503 1501 1499 1497 1495 1494 1494 1495 1497 1498 1499 1499 1500 1501 1502 1503 1504
1502 1497 1508 1509 1513 1512 1506 1508 1511 1516 1527 1517 1516 1504 1497 1499 1503 1504 1507 1509 1509 1509 1509 1508 1508 1507 1505 1504 1501 1499 1497 1494 1493 1492 1492 1493 1494 1494 1494 1494 1495 1496 1497 1498
1505 1508 1508 1516 1517 1513 1509 1506 1508 1511 1519 1516 1518 1500 1503 1503 1504 1506 1508 1510 1510 1509 1509 1508 1506 1504 1502 1500 1500 1498 1496 1494 1492 1490 1489 1488 1488 1488 1488 1488 1488 1489 1490 1491
1503 1509 1508 1498 1505 1508 1508 1507 1509 1510 1517 1512 1503 1499 1501 1500 1503 1506 1507 1509 1509 1509 1508 1506 1503 1501 1500 1497 1496 1495 1494 1491 1489 1486 1485 1484 1483 1482 1481 1481 1482 1482 1483 1484
1507 1511 1513 1515 1514 1515 1511 1506 1507 1508 1503 1511 1500 1498 1498 1500 1504 1507 1509 1507 1507 1506 1505 1503 1501 1498 1495 1494 1492 1488 1486 1484 1483 1480 1477 1476 1475 1475 1475 1475 1475 1477 1477 1478
1513 1512 1510 1513 1512 1513 1512 1509 1509 1507 1506 1505 1504 1500 1504 1503 1503 1504 1503 1504 1504 1503 1502 1500 1497 1494 1491 1489 1487 1484 1481 1478 1476 1472 1470 1470 1468 1468 1467 1467 1467 1467 1467 1469
1516 1515 1515 1510 1511 1510 1511 1503 1504 1506 1504 1506 1506 1500 1500 1498 1503 1504 1503 1504 1503 1502 1500 1497 1493 1490 1486 1483 1481 1476 1473 1471 1466 1464 1462 1461 1460 1457 1456 1457 1458 1458 1458 1459
1519 1519 1519 1517 1523 1510 1493 1498 1499 1499 1496 1498 1498 1499 1502 1504 1506 1505 1502 1502 1501 1499 1496 1493 1489 1485 1481 1476 1473 1470 1467 1463 1459 1455 1454 1453 1451 1450 1449 1448 1447 1448 1449 1449
1520 1517 1523 1518 1514 1503 1492 1499 1499 1498 1499 1502 1502 1504 1505 1503 1500 1500 1501 1501 1499 1496 1493 1489 1485 1481 1476 1471 1467 1463 1459 1456 1451 1448 1445 1445 1443 1441 1441 1439 1438 1438 1439 1439
1520 1520 1523 1530 1520 1507 1496 1502 1501 1501 1502 1505 1505 1504 1503 1502 1498 1496 1498 1497 1494 1492 1489 1485 1480 1476 1472 1466 1461 1457 1453 1450 1444 1440 1438 1434 1433 1431 1430 1429 1429 1429 1429 1429
1527 1528 1527 1525 1521 1507 1501 1501 1501 1508 1504 1505 1505 1503 1502 1502 1502 1496 1494 1492 1489 1485 1483 1479 1474 1469 1465 1460 1456 1450 1446 1443 1438 1433 1431 1428 1425 1422 1420 1418 1418 1418 1419 1420
1518 1522 1525 1524 1524 1517 1498 1502 1501 1501 1502 1502 1501 1500 1499 1499 1496 1492 1489 1485 1482 1478 1475 1472 1466 1461 1458 1455 1451 1445 1440 1436 1431 1426 1423 1420 1417 1414 1412 1410 1409 1410 1410 1411
1514 1506 1508 1510 1502 1496 1496 1496 1496 1497 1498 1498 1498 1497 1495 1495 1491 1488 1484 1479 1476 1472 1469 1466 1461 1455 1453 1449 1444 1437 1434 1428 1424 1420 1416 1412 1410 1407 1404 1403 1402 1402 1402 1403
1505 1505 1506 1504 1489 1492 1492 1493 1493 1494 1495 1495 1494 1493 1492 1490 1486 1483 1479 1475 1471 1467 1463 1459 1454 1450 1445 1443 1438 1434 1428 1422 1416 1411 1408 1405 1401 1399 1399 1398 1396 1396 1396 1397
1497 1500 1497 1493 1486 1488 1488 1489 1489 1489 1490 1489 1489 1488 1486 1483 1480 1476 1472 1469 1465 1462 1458 1454 1449 1444 1439 1434 1430 1426 1420 1414 1408 1404 1400 1397 1395 1391 1388 1388 1390 1390 1390 1391
1489 1484 1489 1481 1481 1482 1483 1485 1486 1486 1485 1484 1483 1481 1480 1476 1473 1470 1467 1464 1461 1457 1453 1448 1444 1437 1432 1426 1422 1417 1411 1406 1400 1395 1392 1389 1386 1384 1382 1380 1379 1378 1380 1381